,,Stat5,,Stat1,,Stat2,,Stat3,,Stat4,,Wind1,,Wind1,
time,status,PA1M_AVG,status,PR1M_SUM,status,RH1M_AVG,status,SR1M_AVG,status,TA1M_AVG,status,W1dAve1m,status,W1sAve1m,
2000-05-12, 00:00:00,VALID,917.857,VALID,0,VALID,96.1409,VALID,0.0849042,VALID,18.2614,VALID,83,VALID,0.859375,
2000-05-12, 00:01:00,VALID,917.845,VALID,0,VALID,96.1562,VALID,0.0849042,VALID,18.2773,VALID,89,VALID,0.75185,
2000-05-12, 00:02:00,VALID,917.824,VALID,0,VALID,96.2032,VALID,0.0849042,VALID,18.2934,VALID,92,VALID,0.543174,
2000-05-12, 00:03:00,VALID,917.826,VALID,0,VALID,96.0252,VALID,0.101885,VALID,18.287,VALID,87,VALID,0.434827,
2000-05-12, 00:04:00,VALID,917.836,VALID,0,VALID,95.8841,VALID,0.0849042,VALID,18.2575,VALID,87,VALID,0.612413,
2000-05-12, 00:05:00,VALID,917.847,VALID,0,VALID,95.776,VALID,0.0509425,VALID,18.2291,VALID,87,VALID,0.781456,
2000-05-12, 00:06:00,VALID,917.839,VALID,0,VALID,96.427,VALID,0.101885,VALID,18.2455,VALID,85,VALID,0.873633,
2000-05-12, 00:07:00,VALID,917.838,VALID,0,VALID,96.7805,VALID,0.101885,VALID,18.2515,VALID,87,VALID,1.03203,
2000-05-12, 00:08:00,VALID,917.832,VALID,0,VALID,97.1836,VALID,0.0169808,VALID,18.2976,VALID,84,VALID,0.813301,
2000-05-12, 00:09:00,VALID,917.798,VALID,0,VALID,97.0044,VALID,-0.0509425,VALID,18.3142,VALID,96,VALID,0.807813,
2000-05-12, 00:10:00,VALID,917.759,VALID,0,VALID,97.1379,VALID,-0.0169808,VALID,18.3562,VALID,108,VALID,0.59043,
2000-05-12, 00:11:00,VALID,917.719,VALID,0,VALID,96.8416,VALID,-0.0169808,VALID,18.3564,VALID,117,VALID,0.420819,
2000-05-12, 00:12:00,VALID,917.687,VALID,0,VALID,96.7221,VALID,-0.0169808,VALID,18.3396,VALID,115,VALID,0,
2000-05-12, 00:13:00,VALID,917.661,VALID,0,VALID,96.8518,VALID,-0.0169808,VALID,18.3564,VALID,115,VALID,0,
2000-05-12, 00:14:00,VALID,917.618,VALID,0,VALID,96.867,VALID,-0.0169808,VALID,18.3562,VALID,109,VALID,0,
2000-05-12, 00:15:00,VALID,917.583,VALID,0,VALID,95.9591,VALID,0,VALID,18.3045,VALID,115,VALID,0.417067,
2000-05-12, 00:16:00,VALID,917.579,VALID,0,VALID,95.4708,VALID,0,VALID,18.2173,VALID,103,VALID,0.660156,
2000-05-12, 00:17:00,VALID,917.567,VALID,0,VALID,96.2172,VALID,-0.0169808,VALID,18.1848,VALID,106,VALID,0.442383,
2000-05-12, 00:18:00,VALID,917.57,VALID,0,VALID,96.8734,VALID,-0.0339617,VALID,18.1816,VALID,105,VALID,0.540848,
2000-05-12, 00:19:00,VALID,917.577,VALID,0,VALID,97.0578,VALID,-0.0169808,VALID,18.1786,VALID,105,VALID,0.107686,
2000-05-12, 00:20:00,VALID,917.58,VALID,0,VALID,97.2638,VALID,-0.0169808,VALID,18.185,VALID,111,VALID,0,
2000-05-12, 00:21:00,VALID,917.558,VALID,0,VALID,97.3261,VALID,0,VALID,18.1883,VALID,110,VALID,0.47895,
2000-05-12, 00:22:00,VALID,917.538,VALID,0,VALID,97.1658,VALID,-0.0169808,VALID,18.1656,VALID,96,VALID,0.571314,
2000-05-12, 00:23:00,VALID,917.529,VALID,0,VALID,97.335,VALID,0,VALID,18.1917,VALID,117,VALID,0.494485,
2000-05-12, 00:24:00,VALID,917.499,VALID,0,VALID,97.5232,VALID,-0.0339617,VALID,18.2143,VALID,89,VALID,0.826116,
2000-05-12, 00:25:00,VALID,917.491,VALID,0,VALID,97.5168,VALID,-0.0509425,VALID,18.2305,VALID,98,VALID,0.60597,
2000-05-12, 00:26:00,VALID,917.488,VALID,0,VALID,97.6974,VALID,-0.0339617,VALID,18.2722,VALID,96,VALID,0.460515,
2000-05-12, 00:27:00,VALID,917.489,VALID,0,VALID,97.9848,VALID,0,VALID,18.3467,VALID,106,VALID,0.0805921,
2000-05-12, 00:28:00,VALID,917.48,VALID,0,VALID,97.9708,VALID,-0.0509425,VALID,18.356,VALID,107,VALID,0,
2000-05-12, 00:29:00,VALID,917.475,VALID,0,VALID,97.8487,VALID,0,VALID,18.3855,VALID,107,VALID,0,
2000-05-12, 00:30:00,VALID,917.467,VALID,0,VALID,97.7635,VALID,-0.0679233,VALID,18.379,VALID,107,VALID,0,
2000-05-12, 00:31:00,VALID,917.458,VALID,0,VALID,97.5817,VALID,-0.0339617,VALID,18.3656,VALID,107,VALID,0,
2000-05-12, 00:32:00,VALID,917.443,VALID,0,VALID,97.2994,VALID,-0.0169808,VALID,18.3333,VALID,107,VALID,0,
2000-05-12, 00:33:00,VALID,917.411,VALID,0,VALID,97.0807,VALID,-0.0339617,VALID,18.308,VALID,107,VALID,0,
2000-05-12, 00:34:00,VALID,917.391,VALID,0,VALID,97.1506,VALID,-0.0339617,VALID,18.3207,VALID,107,VALID,0,
2000-05-12, 00:35:00,VALID,917.37,VALID,0,VALID,96.9955,VALID,-0.0509425,VALID,18.2953,VALID,107,VALID,0,
2000-05-12, 00:36:00,VALID,917.36,VALID,0,VALID,96.9815,VALID,-0.0339617,VALID,18.2759,VALID,107,VALID,0,
2000-05-12, 00:37:00,VALID,917.362,VALID,0,VALID,97.0476,VALID,-0.0169808,VALID,18.2688,VALID,107,VALID,0,
2000-05-12, 00:38:00,VALID,917.357,VALID,0,VALID,96.6419,VALID,-0.0679233,VALID,18.2076,VALID,107,VALID,0,
2000-05-12, 00:39:00,VALID,917.371,VALID,0,VALID,95.706,VALID,-0.0509425,VALID,18.0884,VALID,106,VALID,0,
2000-05-12, 00:40:00,VALID,917.364,VALID,0,VALID,96.5873,VALID,-0.0679233,VALID,18.0563,VALID,99,VALID,0.225718,
2000-05-12, 00:41:00,VALID,917.362,VALID,0,VALID,97.2956,VALID,-0.0509425,VALID,18.0658,VALID,94,VALID,0.556743,
2000-05-12, 00:42:00,VALID,917.359,VALID,0,VALID,97.4812,VALID,-0.0509425,VALID,18.0367,VALID,99,VALID,0.341071,
2000-05-12, 00:43:00,VALID,917.353,VALID,0,VALID,97.9161,VALID,-0.0339617,VALID,18.0817,VALID,108,VALID,0.452123,
2000-05-12, 00:44:00,VALID,917.344,VALID,0,VALID,98.1017,VALID,-0.0679233,VALID,18.1336,VALID,100,VALID,0.256629,
2000-05-12, 00:45:00,VALID,917.328,VALID,0,VALID,98.1361,VALID,-0.0679233,VALID,18.143,VALID,100,VALID,0,
2000-05-12, 00:46:00,VALID,917.329,VALID,0,VALID,98.3179,VALID,-0.0679233,VALID,18.1855,VALID,104,VALID,0.0466694,
2000-05-12, 00:47:00,VALID,917.306,VALID,0,VALID,98.2683,VALID,-0.0679233,VALID,18.182,VALID,113,VALID,0.0404647,
2000-05-12, 00:48:00,VALID,917.291,VALID,0,VALID,98.2569,VALID,-0.0849042,VALID,18.2148,VALID,124,VALID,0,
2000-05-12, 00:49:00,VALID,917.274,VALID,0,VALID,98.2175,VALID,-0.0679233,VALID,18.2079,VALID,131,VALID,0,
2000-05-12, 00:50:00,VALID,917.255,VALID,0,VALID,98.3561,VALID,-0.0679233,VALID,18.2531,VALID,130,VALID,0,
2000-05-12, 00:51:00,VALID,917.241,VALID,0,VALID,98.5074,VALID,-0.0509425,VALID,18.3209,VALID,123,VALID,0,
2000-05-12, 00:52:00,VALID,917.218,VALID,0,VALID,98.4921,VALID,-0.0849042,VALID,18.3433,VALID,129,VALID,0,
2000-05-12, 00:53:00,VALID,917.206,VALID,0,VALID,98.4349,VALID,-0.0169808,VALID,18.3553,VALID,123,VALID,0,
2000-05-12, 00:54:00,VALID,917.191,VALID,0,VALID,98.3319,VALID,0.0169808,VALID,18.3714,VALID,105,VALID,0,
2000-05-12, 00:55:00,VALID,917.169,VALID,0,VALID,98.3523,VALID,0.0169808,VALID,18.4102,VALID,90,VALID,0,
2000-05-12, 00:56:00,VALID,917.168,VALID,0,VALID,98.5176,VALID,0.0169808,VALID,18.4745,VALID,83,VALID,0.366295,
2000-05-12, 00:57:00,VALID,917.175,VALID,0,VALID,98.6829,VALID,0.0169808,VALID,18.5649,VALID,79,VALID,0.744391,
2000-05-12, 00:58:00,VALID,917.176,VALID,0,VALID,98.7871,VALID,0.0169808,VALID,18.6392,VALID,59,VALID,0.634943,
2000-05-12, 00:59:00,VALID,917.185,VALID,0,VALID,98.9436,VALID,0.0339617,VALID,18.7587,VALID,91,VALID,0.793186,
2000-05-12, 01:00:00,VALID,917.166,VALID,0,VALID,98.9092,VALID,0.0339617,VALID,18.7878,VALID,88,VALID,0.884415,
2000-05-12, 01:01:00,VALID,917.152,VALID,0,VALID,98.7414,VALID,0.0169808,VALID,18.762,VALID,92,VALID,0.841346,
2000-05-12, 01:02:00,VALID,917.12,VALID,0,VALID,98.7299,VALID,0.0509425,VALID,18.8102,VALID,93,VALID,1.04902,
2000-05-12, 01:03:00,VALID,917.083,VALID,0,VALID,98.5315,VALID,0.0169808,VALID,18.7779,VALID,90,VALID,0.732143,
2000-05-12, 01:04:00,VALID,917.055,VALID,0,VALID,98.4209,VALID,0.0169808,VALID,18.7813,VALID,92,VALID,0.70397,
2000-05-12, 01:05:00,VALID,917.011,VALID,0,VALID,98.3726,VALID,0.0509425,VALID,18.7809,VALID,81,VALID,0.844899,
2000-05-12, 01:06:00,VALID,916.991,VALID,0,VALID,98.5392,VALID,0.0339617,VALID,18.8551,VALID,85,VALID,0.994643,
2000-05-12, 01:07:00,VALID,916.531,VALID,0,VALID,98.5837,VALID,0.0339617,VALID,18.8934,VALID,97,VALID,1.04247,
2000-05-12, 01:08:00,VALID,916.934,VALID,0,VALID,98.529,VALID,-0.0169808,VALID,18.9304,VALID,89,VALID,0.778083,
2000-05-12, 01:09:00,VALID,916.914,VALID,0,VALID,98.4565,VALID,-0.0339617,VALID,18.9435,VALID,95,VALID,0.984375,
2000-05-12, 01:10:00,VALID,916.885,VALID,0,VALID,98.4044,VALID,-0.0679233,VALID,18.9532,VALID,98,VALID,0.7875,
2000-05-12, 01:11:00,VALID,916.881,VALID,0,VALID,98.3891,VALID,-0.0509425,VALID,18.9925,VALID,102,VALID,1.00601,
2000-05-12, 01:12:00,VALID,916.864,VALID,0,VALID,98.2938,VALID,-0.0849042,VALID,19.0019,VALID,87,VALID,0.62358,
2000-05-12, 01:13:00,VALID,916.848,VALID,0,VALID,98.3128,VALID,-0.0679233,VALID,19.0504,VALID,98,VALID,1.05773,
2000-05-12, 01:14:00,VALID,916.826,VALID,0,VALID,98.2404,VALID,-0.0339617,VALID,19.0824,VALID,77,VALID,0.780222,
2000-05-12, 01:15:00,VALID,916.79,VALID,0,VALID,98.173,VALID,-0.0679233,VALID,19.1083,VALID,94,VALID,0.4373,
2000-05-12, 01:16:00,VALID,916.762,VALID,0,VALID,98.0509,VALID,-0.0509425,VALID,19.1374,VALID,108,VALID,0.513867,
2000-05-12, 01:17:00,VALID,916.73,VALID,0,VALID,97.9301,VALID,-0.0339617,VALID,19.1466,VALID,105,VALID,0.798214,
2000-05-12, 01:18:00,VALID,916.709,VALID,0,VALID,97.8411,VALID,-0.0339617,VALID,19.1595,VALID,100,VALID,0.914696,
2000-05-12, 01:19:00,VALID,916.707,VALID,0,VALID,97.6618,VALID,-0.0169808,VALID,19.1853,VALID,99,VALID,0.42739,
2000-05-12, 01:20:00,VALID,916.698,VALID,0,VALID,97.4977,VALID,-0.0679233,VALID,19.1953,VALID,99,VALID,0.206473,
2000-05-12, 01:21:00,VALID,916.686,VALID,0,VALID,97.3566,VALID,-0.0509425,VALID,19.1915,VALID,99,VALID,0.0010016,
2000-05-12, 01:22:00,VALID,916.68,VALID,0,VALID,97.2358,VALID,-0.0509425,VALID,19.2246,VALID,99,VALID,0,
2000-05-12, 01:23:00,VALID,916.682,VALID,0,VALID,97.0603,VALID,0.0679233,VALID,19.246,VALID,88,VALID,0,
2000-05-12, 01:24:00,VALID,916.678,VALID,0,VALID,96.8607,VALID,0.0509425,VALID,19.2649,VALID,117,VALID,0,
2000-05-12, 01:25:00,VALID,916.683,VALID,0,VALID,96.6445,VALID,0.0339617,VALID,19.2905,VALID,120,VALID,0,
2000-05-12, 01:26:00,VALID,916.672,VALID,0,VALID,96.3876,VALID,0.0509425,VALID,19.2932,VALID,120,VALID,0,
2000-05-12, 01:27:00,VALID,916.658,VALID,0,VALID,96.1676,VALID,0.0339617,VALID,19.3228,VALID,120,VALID,0,
2000-05-12, 01:28:00,VALID,916.659,VALID,0,VALID,95.9705,VALID,0.0509425,VALID,19.3292,VALID,120,VALID,0,
2000-05-12, 01:29:00,VALID,916.666,VALID,0,VALID,95.8714,VALID,0.0509425,VALID,19.3419,VALID,120,VALID,0,
2000-05-12, 01:30:00,VALID,916.672,VALID,0,VALID,95.8421,VALID,0.0849042,VALID,19.3354,VALID,120,VALID,0,
2000-05-12, 01:31:00,VALID,916.691,VALID,0,VALID,95.7455,VALID,0.0849042,VALID,19.3191,VALID,120,VALID,0,
2000-05-12, 01:32:00,VALID,916.715,VALID,0,VALID,95.6208,VALID,0.0679233,VALID,19.3223,VALID,120,VALID,0,
2000-05-12, 01:33:00,VALID,916.714,VALID,0,VALID,95.1936,VALID,0.0679233,VALID,19.2997,VALID,120,VALID,0.0340074,
2000-05-12, 01:34:00,VALID,916.684,VALID,0,VALID,95.2343,VALID,0.0849042,VALID,19.2932,VALID,118,VALID,0.820982,
2000-05-12, 01:35:00,VALID,916.655,VALID,0,VALID,95.083,VALID,0.0849042,VALID,19.2639,VALID,100,VALID,1.05108,
2000-05-12, 01:36:00,VALID,916.643,VALID,0,VALID,95.0931,VALID,0.0849042,VALID,19.2321,VALID,90,VALID,1.00929,
2000-05-12, 01:37:00,VALID,916.639,VALID,0,VALID,95.4059,VALID,0.0679233,VALID,19.1739,VALID,91,VALID,0.85403,
2000-05-12, 01:38:00,VALID,916.622,VALID,0,VALID,95.6539,VALID,-0.0339617,VALID,19.1421,VALID,106,VALID,0.477009,
2000-05-12, 01:39:00,VALID,916.632,VALID,0,VALID,95.6641,VALID,-0.0339617,VALID,19.1364,VALID,70,VALID,0.386819,
2000-05-12, 01:40:00,VALID,916.65,VALID,0,VALID,95.308,VALID,-0.0169808,VALID,19.1528,VALID,348,VALID,0.0764678,
2000-05-12, 01:41:00,VALID,916.648,VALID,0,VALID,95.2813,VALID,-0.0339617,VALID,19.1848,VALID,48,VALID,0.235243,
2000-05-12, 01:42:00,VALID,916.647,VALID,0,VALID,95.3131,VALID,-0.0509425,VALID,19.2109,VALID,118,VALID,0.0789474,
2000-05-12, 01:43:00,VALID,916.644,VALID,0,VALID,95.3589,VALID,-0.0509425,VALID,19.2405,VALID,116,VALID,0.232772,
2000-05-12, 01:44:00,VALID,916.66,VALID,0,VALID,95.2737,VALID,-0.0849042,VALID,19.2462,VALID,116,VALID,0,
2000-05-12, 01:45:00,VALID,916.663,VALID,0,VALID,95.1542,VALID,-0.0509425,VALID,19.2462,VALID,115,VALID,0,
2000-05-12, 01:46:00,VALID,916.666,VALID,0,VALID,95.1427,VALID,-0.0339617,VALID,19.2462,VALID,115,VALID,0,
2000-05-12, 01:47:00,VALID,916.673,VALID,0,VALID,95.0321,VALID,-0.0509425,VALID,19.2398,VALID,115,VALID,0,
2000-05-12, 01:48:00,VALID,916.663,VALID,0,VALID,94.9749,VALID,-0.0339617,VALID,19.2497,VALID,115,VALID,0,
2000-05-12, 01:49:00,VALID,916.657,VALID,0,VALID,94.9393,VALID,-0.0339617,VALID,19.2621,VALID,115,VALID,0,
2000-05-12, 01:50:00,VALID,916.634,VALID,0,VALID,94.7129,VALID,-0.0679233,VALID,19.2788,VALID,114,VALID,0,
2000-05-12, 01:51:00,VALID,916.623,VALID,0,VALID,94.7396,VALID,-0.0339617,VALID,19.2917,VALID,118,VALID,0,
2000-05-12, 01:52:00,VALID,916.594,VALID,0,VALID,94.6837,VALID,-0.0849042,VALID,19.2917,VALID,151,VALID,0,
2000-05-12, 01:53:00,VALID,916.565,VALID,0,VALID,94.7523,VALID,-0.0509425,VALID,19.2885,VALID,222,VALID,0,
2000-05-12, 01:54:00,VALID,916.534,VALID,0,VALID,94.8083,VALID,-0.0339617,VALID,19.2755,VALID,232,VALID,0,
2000-05-12, 01:55:00,VALID,916.504,VALID,0,VALID,94.9062,VALID,-0.0509425,VALID,19.2663,VALID,230,VALID,0,
2000-05-12, 01:56:00,VALID,916.459,VALID,0,VALID,95.0448,VALID,-0.0339617,VALID,19.2398,VALID,215,VALID,0,
2000-05-12, 01:57:00,VALID,916.433,VALID,0,VALID,95.0461,VALID,-0.0679233,VALID,19.2206,VALID,162,VALID,0,
2000-05-12, 01:58:00,VALID,916.435,VALID,0,VALID,95.0766,VALID,-0.0509425,VALID,19.2206,VALID,162,VALID,0,
2000-05-12, 01:59:00,VALID,916.436,VALID,0,VALID,95.0664,VALID,-0.0679233,VALID,19.2142,VALID,162,VALID,0,
2000-05-12, 02:00:00,VALID,916.447,VALID,0,VALID,95.0855,VALID,-0.0509425,VALID,19.2144,VALID,194,VALID,0,
2000-05-12, 02:01:00,VALID,916.468,VALID,0,VALID,95.0346,VALID,-0.0339617,VALID,19.1915,VALID,223,VALID,0,
2000-05-12, 02:02:00,VALID,916.458,VALID,0,VALID,95.0041,VALID,-0.0679233,VALID,19.1886,VALID,223,VALID,0,
2000-05-12, 02:03:00,VALID,916.451,VALID,0,VALID,95.041,VALID,-0.0679233,VALID,19.1687,VALID,223,VALID,0,
2000-05-12, 02:04:00,VALID,916.442,VALID,0,VALID,94.8197,VALID,-0.0679233,VALID,19.1493,VALID,223,VALID,0,
2000-05-12, 02:05:00,VALID,916.406,VALID,0,VALID,94.6913,VALID,-0.0339617,VALID,19.162,VALID,196,VALID,0,
2000-05-12, 02:06:00,VALID,916.387,VALID,0,VALID,94.5425,VALID,-0.0169808,VALID,19.1689,VALID,144,VALID,0,
2000-05-12, 02:07:00,VALID,916.37,VALID,0,VALID,94.6099,VALID,-0.0339617,VALID,19.1781,VALID,187,VALID,0,
2000-05-12, 02:08:00,VALID,916.358,VALID,0,VALID,94.76,VALID,0,VALID,19.165,VALID,207,VALID,0,
2000-05-12, 02:09:00,VALID,916.363,VALID,0,VALID,94.9469,VALID,0,VALID,19.156,VALID,207,VALID,0,
2000-05-12, 02:10:00,VALID,916.36,VALID,0,VALID,95.0753,VALID,-0.0339617,VALID,19.1329,VALID,209,VALID,0,
2000-05-12, 02:11:00,VALID,916.374,VALID,0,VALID,95.1313,VALID,-0.0509425,VALID,19.1332,VALID,209,VALID,0,
2000-05-12, 02:12:00,VALID,916.37,VALID,0,VALID,95.1949,VALID,-0.0679233,VALID,19.1332,VALID,209,VALID,0,
2000-05-12, 02:13:00,VALID,916.355,VALID,0,VALID,95.2915,VALID,-0.0169808,VALID,19.1265,VALID,209,VALID,0,
2000-05-12, 02:14:00,VALID,916.328,VALID,0,VALID,95.3169,VALID,-0.0509425,VALID,19.1265,VALID,209,VALID,0,
2000-05-12, 02:15:00,VALID,916.307,VALID,0,VALID,95.088,VALID,-0.0849042,VALID,19.1299,VALID,209,VALID,0,
2000-05-12, 02:16:00,VALID,916.282,VALID,0,VALID,94.8375,VALID,-0.0509425,VALID,19.1493,VALID,209,VALID,0,
2000-05-12, 02:17:00,VALID,916.248,VALID,0,VALID,94.863,VALID,-0.0509425,VALID,19.1752,VALID,209,VALID,0,
2000-05-12, 02:18:00,VALID,916.227,VALID,0,VALID,95.0041,VALID,-0.0679233,VALID,19.1655,VALID,209,VALID,0,
2000-05-12, 02:19:00,VALID,916.205,VALID,0,VALID,95.041,VALID,-0.0509425,VALID,19.1396,VALID,185,VALID,0,
2000-05-12, 02:20:00,VALID,916.195,VALID,0,VALID,95.0753,VALID,0,VALID,19.0974,VALID,135,VALID,0,
2000-05-12, 02:21:00,VALID,916.178,VALID,0,VALID,95.0537,VALID,0,VALID,19.0397,VALID,111,VALID,0,
2000-05-12, 02:22:00,VALID,916.183,VALID,0,VALID,95.1974,VALID,-0.0339617,VALID,18.991,VALID,106,VALID,0,
2000-05-12, 02:23:00,VALID,916.195,VALID,0,VALID,95.1745,VALID,0.0679233,VALID,18.9965,VALID,111,VALID,0,
2000-05-12, 02:24:00,VALID,916.188,VALID,0,VALID,95.1059,VALID,0.0509425,VALID,18.9732,VALID,111,VALID,0,
2000-05-12, 02:25:00,VALID,916.167,VALID,0,VALID,95.0346,VALID,0.0849042,VALID,18.9635,VALID,107,VALID,0,
2000-05-12, 02:26:00,VALID,916.144,VALID,0,VALID,95.0499,VALID,0.0339617,VALID,18.9153,VALID,90,VALID,0,
2000-05-12, 02:27:00,VALID,916.122,VALID,0,VALID,95.439,VALID,0.0849042,VALID,18.8992,VALID,78,VALID,0.342634,
2000-05-12, 02:28:00,VALID,916.116,VALID,0,VALID,95.4835,VALID,0.0339617,VALID,18.8731,VALID,80,VALID,1.10051,
2000-05-12, 02:29:00,VALID,916.123,VALID,0,VALID,95.8853,VALID,0.0679233,VALID,18.8865,VALID,67,VALID,1.02941,
2000-05-12, 02:30:00,VALID,916.146,VALID,0,VALID,95.9222,VALID,0.0679233,VALID,18.886,VALID,46,VALID,0.47567,
2000-05-12, 02:31:00,VALID,916.16,VALID,0,VALID,95.851,VALID,0.0509425,VALID,18.8706,VALID,64,VALID,0.18129,
2000-05-12, 02:32:00,VALID,916.156,VALID,0,VALID,95.7607,VALID,0.0339617,VALID,18.8507,VALID,68,VALID,0.641258,
2000-05-12, 02:33:00,VALID,916.182,VALID,0,VALID,95.528,VALID,0.0679233,VALID,18.8152,VALID,62,VALID,0.331003,
2000-05-12, 02:34:00,VALID,916.184,VALID,0,VALID,95.823,VALID,0.0509425,VALID,18.8087,VALID,82,VALID,0.330134,
2000-05-12, 02:35:00,VALID,916.211,VALID,0,VALID,95.9909,VALID,0.0679233,VALID,18.8187,VALID,38,VALID,0.293269,
2000-05-12, 02:36:00,VALID,916.22,VALID,0,VALID,95.8396,VALID,0.0509425,VALID,18.8316,VALID,37,VALID,0.0317235,
2000-05-12, 02:37:00,VALID,916.227,VALID,0,VALID,95.5662,VALID,0.0509425,VALID,18.8224,VALID,47,VALID,0,
2000-05-12, 02:38:00,VALID,916.241,VALID,0,VALID,95.3564,VALID,0,VALID,18.7906,VALID,82,VALID,0.068051,
2000-05-12, 02:39:00,VALID,916.264,VALID,0,VALID,95.1249,VALID,0.0169808,VALID,18.7327,VALID,99,VALID,0,
2000-05-12, 02:40:00,VALID,916.26,VALID,0,VALID,95.4314,VALID,0.0169808,VALID,18.6939,VALID,99,VALID,0,
2000-05-12, 02:41:00,VALID,916.265,VALID,0,VALID,95.5191,VALID,0,VALID,18.6711,VALID,101,VALID,0,
2000-05-12, 02:42:00,VALID,916.264,VALID,0,VALID,95.7874,VALID,0,VALID,18.6418,VALID,98,VALID,0,
2000-05-12, 02:43:00,VALID,916.247,VALID,0,VALID,96.422,VALID,0.0169808,VALID,18.6353,VALID,98,VALID,0.444623,
2000-05-12, 02:44:00,VALID,916.228,VALID,0,VALID,96.7971,VALID,0.0169808,VALID,18.6711,VALID,113,VALID,0.887054,
2000-05-12, 02:45:00,VALID,916.205,VALID,0,VALID,96.8352,VALID,0,VALID,18.677,VALID,118,VALID,0.701522,
2000-05-12, 02:46:00,VALID,916.206,VALID,0,VALID,96.8174,VALID,0.0169808,VALID,18.7126,VALID,112,VALID,0.343328,
2000-05-12, 02:47:00,VALID,916.209,VALID,0,VALID,96.7437,VALID,0.0339617,VALID,18.7223,VALID,108,VALID,0.145354,
2000-05-12, 02:48:00,VALID,916.201,VALID,0,VALID,96.7818,VALID,0.0339617,VALID,18.7486,VALID,108,VALID,0.145536,
2000-05-12, 02:49:00,VALID,916.201,VALID,0,VALID,96.8581,VALID,0,VALID,18.7873,VALID,106,VALID,0.313101,
2000-05-12, 02:50:00,VALID,916.221,VALID,0,VALID,96.7017,VALID,0.0509425,VALID,18.806,VALID,107,VALID,0.253314,
2000-05-12, 02:51:00,VALID,916.218,VALID,0,VALID,96.4436,VALID,-0.0169808,VALID,18.8162,VALID,87,VALID,0.520399,
2000-05-12, 02:52:00,VALID,916.191,VALID,0,VALID,96.0774,VALID,0,VALID,18.8194,VALID,99,VALID,0.849507,
2000-05-12, 02:53:00,VALID,916.185,VALID,0,VALID,95.851,VALID,0.0169808,VALID,18.7995,VALID,102,VALID,0.530048,
2000-05-12, 02:54:00,VALID,916.174,VALID,0,VALID,96.0685,VALID,0,VALID,18.8032,VALID,102,VALID,0.507617,
2000-05-12, 02:55:00,VALID,916.176,VALID,0,VALID,96.0608,VALID,0.0169808,VALID,18.7935,VALID,98,VALID,0.535268,
2000-05-12, 02:56:00,VALID,916.174,VALID,0,VALID,96.2999,VALID,0.0169808,VALID,18.8355,VALID,98,VALID,0.472973,
2000-05-12, 02:57:00,VALID,916.171,VALID,0,VALID,96.1549,VALID,0.0339617,VALID,18.8452,VALID,93,VALID,0.398438,
2000-05-12, 02:58:00,VALID,916.163,VALID,0,VALID,96.3851,VALID,0,VALID,18.8681,VALID,75,VALID,0.468527,
2000-05-12, 02:59:00,VALID,916.176,VALID,0,VALID,96.4029,VALID,0.0509425,VALID,18.8939,VALID,77,VALID,0.563101,
2000-05-12, 03:00:00,VALID,916.181,VALID,0,VALID,96.3546,VALID,0.0169808,VALID,18.9029,VALID,84,VALID,0.648015,
2000-05-12, 03:01:00,VALID,916.182,VALID,0,VALID,96.3546,VALID,0.0169808,VALID,18.9098,VALID,82,VALID,1.05345,
2000-05-12, 03:02:00,VALID,916.199,VALID,0,VALID,96.4983,VALID,0.0339617,VALID,18.919,VALID,97,VALID,1.03795,
2000-05-12, 03:03:00,VALID,916.21,VALID,0,VALID,96.5809,VALID,0.0169808,VALID,18.9354,VALID,94,VALID,0.38101,
2000-05-12, 03:04:00,VALID,916.237,VALID,0,VALID,96.6203,VALID,0,VALID,18.9779,VALID,109,VALID,0.22964,
2000-05-12, 03:05:00,VALID,916.258,VALID,0,VALID,96.6852,VALID,0,VALID,19.0005,VALID,107,VALID,0,
2000-05-12, 03:06:00,VALID,916.279,VALID,0,VALID,96.6254,VALID,-0.0169808,VALID,19.0137,VALID,107,VALID,0,
2000-05-12, 03:07:00,VALID,916.302,VALID,0,VALID,96.5593,VALID,0,VALID,19.0363,VALID,107,VALID,0,
2000-05-12, 03:08:00,VALID,916.308,VALID,0,VALID,96.6102,VALID,0,VALID,19.0554,VALID,224,VALID,0,
2000-05-12, 03:09:00,VALID,916.311,VALID,0,VALID,96.6458,VALID,0,VALID,19.0914,VALID,255,VALID,0,
2000-05-12, 03:10:00,VALID,916.304,VALID,0,VALID,96.633,VALID,0,VALID,19.1073,VALID,255,VALID,0,
2000-05-12, 03:11:00,VALID,916.283,VALID,0,VALID,96.6865,VALID,-0.0169808,VALID,19.1198,VALID,255,VALID,0,
2000-05-12, 03:12:00,VALID,916.258,VALID,0,VALID,96.82,VALID,0,VALID,19.1588,VALID,252,VALID,0,
2000-05-12, 03:13:00,VALID,916.248,VALID,0,VALID,96.7488,VALID,0,VALID,19.1652,VALID,212,VALID,0,
2000-05-12, 03:14:00,VALID,916.248,VALID,0,VALID,96.6127,VALID,0.0169808,VALID,19.1618,VALID,205,VALID,0,
2000-05-12, 03:15:00,VALID,916.263,VALID,0,VALID,96.6826,VALID,0.0339617,VALID,19.1456,VALID,203,VALID,0,
2000-05-12, 03:16:00,VALID,916.272,VALID,0,VALID,96.7093,VALID,0,VALID,19.1426,VALID,180,VALID,0,
2000-05-12, 03:17:00,VALID,916.269,VALID,0,VALID,96.8619,VALID,0,VALID,19.1329,VALID,113,VALID,0.191306,
2000-05-12, 03:18:00,VALID,916.255,VALID,0,VALID,97.0832,VALID,0,VALID,19.1391,VALID,134,VALID,0,
2000-05-12, 03:19:00,VALID,916.265,VALID,0,VALID,97.1684,VALID,0.0169808,VALID,19.1493,VALID,134,VALID,0,
2000-05-12, 03:20:00,VALID,916.287,VALID,0.2,VALID,97.1976,VALID,0,VALID,19.1327,VALID,134,VALID,0,
2000-05-12, 03:21:00,VALID,916.285,VALID,0,VALID,97.2332,VALID,0,VALID,19.119,VALID,134,VALID,0,
2000-05-12, 03:22:00,VALID,916.287,VALID,0,VALID,97.3261,VALID,0.0169808,VALID,19.1232,VALID,115,VALID,0.342969,
2000-05-12, 03:23:00,VALID,916.262,VALID,0,VALID,97.4253,VALID,-0.0849042,VALID,19.1272,VALID,105,VALID,0.926786,
2000-05-12, 03:24:00,VALID,916.23,VALID,0,VALID,97.5613,VALID,-0.101885,VALID,19.1212,VALID,236,VALID,0.466639,
2000-05-12, 03:25:00,VALID,916.239,VALID,0,VALID,97.6033,VALID,-0.101885,VALID,19.1051,VALID,231,VALID,0.461627,
2000-05-12, 03:26:00,VALID,916.201,VALID,0,VALID,97.7615,VALID,-0.0849042,VALID,19.1189,VALID,159,VALID,0.486064,
2000-05-12, 03:27:00,VALID,916.182,VALID,0,VALID,97.836,VALID,-0.0849042,VALID,19.1272,VALID,93,VALID,0.144832,
2000-05-12, 03:28:00,VALID,916.156,VALID,0,VALID,97.8423,VALID,-0.0849042,VALID,19.1438,VALID,89,VALID,0.0891047,
2000-05-12, 03:29:00,VALID,916.148,VALID,0,VALID,97.8436,VALID,-0.0849042,VALID,19.147,VALID,124,VALID,0.187911,
2000-05-12, 03:30:00,VALID,916.159,VALID,0,VALID,97.8868,VALID,-0.0679233,VALID,19.1468,VALID,119,VALID,0.384152,
2000-05-12, 03:31:00,VALID,916.183,VALID,0,VALID,97.9034,VALID,-0.0849042,VALID,19.1563,VALID,94,VALID,0.346154,
2000-05-12, 03:32:00,VALID,916.188,VALID,0,VALID,97.8779,VALID,-0.0679233,VALID,19.1466,VALID,92,VALID,0.572917,
2000-05-12, 03:33:00,VALID,916.205,VALID,0,VALID,97.8271,VALID,-0.101885,VALID,19.1339,VALID,110,VALID,0.107639,
2000-05-12, 03:34:00,VALID,916.229,VALID,0,VALID,97.8741,VALID,-0.101885,VALID,19.1214,VALID,136,VALID,0.217516,
2000-05-12, 03:35:00,VALID,916.217,VALID,0,VALID,97.9364,VALID,-0.101885,VALID,19.1207,VALID,124,VALID,0.0254407,
2000-05-12, 03:36:00,VALID,916.191,VALID,0,VALID,98.0089,VALID,-0.101885,VALID,19.1304,VALID,124,VALID,0,